Location: Unspecified
(40.7945°N, 111.1337°W)
Time: 18:56:38
(UTC-06:00)

Vanguard 1 - Pass Details

Date: 01 July 2019
Orbit: 653 x 3830 km, 34.3° (Epoch: 22 July)

Event Time Altitude Azimuth Distance (km) Brightness Sun altitude
Rises 07:09:12 0° 281° (W) 7,084 13.9 11.4°
Reaches altitude 10° 07:15:01 10° 275° (W) 5,576 13.4 12.5°
Maximum altitude 07:27:59 37° 217° (SW) 2,631 12.0 14.8°
Drops below altitude 10° 07:35:37 10° 153° (SSE) 3,273 12.9 16.2°
Sets 07:38:07 0° 143° (SE) 3,943 13.4 16.6°
